STEP CUBE LAB-II

导读

STEP CUBE LAB-II是韩国(KR)于2022年6月21日成功发射的微小卫星,国际卫星标识符为2022-065D,运行在倾角约98.5度的近地轨道。它是韩国自主火箭“世界号”此次发射任务搭载的多颗试验卫星之一,承载着韩国航天领域技术验证与空间科学探索的任务,是韩国推进自主航天能力建设的小型实践项目,助力韩国在微小卫星技术领域积累研发与应用经验。

基本信息
目录编号:
52897
目录名称:
STEP CUBE LAB-II
国际标识:
2022-065D
轨道中心:
EARTH
卫星名称:
STEP CUBE LAB-II
卫星全名:
--
卫星状态:
在轨 (已飞行1454 天)
发射日期:
2022-06-21 UTC
国别 :
韩国 (KR)
星等 :
--
轨道信息
数据来源 国际轨道数据
星历时间: 2026-06-15T00:10:57+0800
6小时前
查看轨道信息
半长轴: 7060.673km
偏心率: 0.0009484
轨道倾角: 98.222°
近地点辐角 39.725°
升交点赤经 309.584°
平近点角 320.465°
近地点: 675.839km
远地点: 689.233km
周期: 98.408分钟
每日圈数: 14.633011
详细信息
使用方式:
暂无
2D轨道图
3D轨道图
轨道高度分析图
轨道倾角分析图
轨道综合分析图
查看轨道综合分析图